Regional Weather Roundup
Issued by NWS Newport/Morehead, NC

Current Version | Previous Version | Graphics & Text | Print | Product List | Glossary On
Versions: 1 2 3 4 5 6 7 8 9 10 11 12 13 14 15 16 17 18 19 20 21 22 23 24 25 26 27 28 29 30 31 32 33 34 35 36 37 38 39 40 41 42 43 44 45 46 47 48 49 50
000 ASUS42 KMHX 062125 RWRMHX WEATHER ROUNDUP FOR EASTERN NORTH CAROLINA NATIONAL WEATHER SERVICE NEWPORT/MOREHEAD CITY NC 500 PM EDT FRI MAY 06 2016 NOTE: "FAIR" INDICATES FEW OR NO CLOUDS BELOW 12,000 FEET WITH NO SIGNIFICANT WEATHER AND/OR OBSTRUCTIONS TO VISIBILITY NCZ015>017-031-032-045>047-102-103-062200- NORTH COAST CITY SKY/WX TMP DP RH WIND PRES REMARKS EDENTON CLOUDY 65 51 62 W9 29.72R ELIZABETH CITY MOSUNNY 60 50 69 W6 29.70S KITTY HAWK PTCLDY 64 51 62 W7 29.70R MANTEO MOSUNNY 61 52 71 NW8 29.72R $$ NCZ045>047-081-094-103-104-062200- CENTRAL COAST CITY SKY/WX TMP DP RH WIND PRES REMARKS FRISCO MOSUNNY 63 51 65 W13 29.72R SWANQUARTER NOT AVBL $$ NCZ095-097-098-100-101-062200- SOUTHERN COAST CITY SKY/WX TMP DP RH WIND PRES REMARKS BEAUFORT PTSUNNY 64 50 60 W13 29.73S CEDAR ISLAND NOT AVBL JACKSONVILLE CLOUDY 65 51 60 NW8 29.74S PINEY ISLAND CLOUDY N/A N/A N/A W15 29.72S WILMINGTON PTSUNNY 66 49 54 NW10 29.75R $$ NCZ011>013-027>030-043-044-078>080-089-090>093-098-062200- COASTAL PLAIN CITY SKY/WX TMP DP RH WIND PRES REMARKS AHOSKIE CLOUDY 59 53 79 CALM 29.72R CLINTON CLOUDY 66 52 61 W8 29.75S ELIZABETHTOWN PTSUNNY 61 53 75 W6 29.78R GOLDSBORO CLOUDY 62 58 88 N1 29.72S GREENVILLE PTSUNNY 63 52 67 NW5 29.76R HAVELOCK CLOUDY 64 51 62 W7 29.74S KENANSVILLE PTSUNNY 65 49 56 CALM 29.75S KINSTON MOSUNNY 63 54 72 NW6 29.74S NEW BERN PTSUNNY 64 51 62 W9 29.74S RICHLANDS CLOUDY 66 54 65 NW8 29.75R ROCKY MOUNT PTSUNNY 65 50 58 NW5 29.72S WASHINGTON PTSUNNY 61 52 73 NW3 29.72S WHITEVILLE NOT AVBL $$ AMZ130-135-150-152-154-156-158-170-250-252-270-ANZ085-086-088-633-658-670-062200- MARINE OBSERVATIONS STATION/POSITION TIME TEMP WIND PRES WAVE SWELL AIR SEA DIR/SP/G HT/PER HT/PER (UTC) (F) (DEG/KT/KT) (MB) (FT/S) (FT/S) CHESAPEAKE LIGHT 2100 54 CALM / 1 1006.7 64 E VA BEACH 2050 53 53 50/ 4/ 4 1005.7 6/ 8 7/ 8 DUCK 2100 56 58 50/ 3/ 4 1005.5 2 E DUCK 2111 60 N/A 5/10 2/11 OREGON INLET 2100 59 61 30/ 5/ 9 1005.8 13E OREGON INLT 2100 57 N/A 5/ 9 5/ 9 HATTERAS CG 2100 62 66 250/ 11/ 14 1006.1 DIAMOND BUOY 2050 62 75 260/ 16/ 19 1006.3 6/ 9 5/ 9 CAPE LOOKOUT 2100 63 250/ 11/ 14 1006.5 BEAUFORT LAB 2100 63 66 290/ 8/ 12 1006.0 30 SE NEW RVR IN 2025 72 N/A 4/ 7 27 SE WRIGHTSVLE 2108 65 72 290/ 10/ 14 1007.5 5 SE WRIGHTSVLE 2108 66 69 290/ 10/ 16 1008.1 225 S CAPE HAT 2050 68 73 300/ 12/ 17 1008.3 8/ 8 7/ 8 41 SE CHARLESTON 2050 65 73 240/ 12/ 14 1008.8 2/ 4 2/ 9 $$

USA.gov is the U.S. government's official web portal to all federal, state and local government web resources and services.